Track NAVSTAR 47 (USA 150) now! NAVSTAR 47 (USA 150) is classified as:
1 26360U 00025A 25183.31338206 -.00000096 00000-0 00000-0 0 9995 2 26360 54.9458 33.4436 0036380 232.9193 297.1431 2.00549111184256